Volver al catálogo

COSMOS 2499 DEB

ActivoPO
NORAD 59373·DEBRIS·🇷🇺 Russia

Lanzado May 23, 2014 desde Plesetsk Cosmodrome

Loading…

Próximos Pases (próximas 24 horas)

TLE

ObsoletoSource: Space-Track

Época: Aug 31, 2026, 03:21 UTC

1 59373U 14028BT  26243.13964651  .00006243  00000-0  14216-1 0  9994
2 59373  82.5068 175.2392 0289026  33.7505 328.1647 13.11684805157435

Sigue COSMOS 2499 DEB en tiempo real con AllMySat

Download on the App Store